This is the latest recevied weather packets stored in our database for station/object WA9AFM. If no packets are shown the sender has not sent any weather packets the latest 10 day(s).
| Time | Temp. | Humidity | Pressure | Rain* | Wind** | Luminosity | Snow |
|---|---|---|---|---|---|---|---|
| 1787833871 | 22.78° C | 83% | 1010.9 hPa | 0 mm | - | - | - |
| 1787832971 | 22.78° C | 83% | 1010.8 hPa | 0 mm | - | - | - |
| 1787832071 | 22.78° C | 83% | 1010.6 hPa | 0 mm | - | - | - |
| 1787831170 | 23.33° C | 82% | 1010.5 hPa | 0 mm | - | - | - |
| 1787830271 | 22.78° C | 82% | 1010.3 hPa | 0 mm | - | - | - |
| 1787829371 | 22.22° C | 83% | 1010.3 hPa | 0 mm | - | - | - |
| 1787828470 | 22.22° C | 83% | 1010.3 hPa | 0 mm | - | - | - |
| 1787827571 | 22.78° C | 81% | 1010.1 hPa | 0 mm | - | - | - |
| 1787826670 | 23.33° C | 81% | 1009.8 hPa | 0 mm | - | - | - |
| 1787825770 | 23.33° C | 80% | 1009.9 hPa | 0 mm | - | - | - |
| 1787824871 | 23.89° C | 78% | 1009.7 hPa | 0 mm | - | - | - |
| 1787823970 | 23.89° C | 78% | 1009.6 hPa | 0 mm | - | - | - |
| 1787823071 | 24.44° C | 76% | 1009.5 hPa | 0 mm | - | - | - |
| 1787822171 | 24.44° C | 76% | 1009.7 hPa | 0 mm | - | - | - |
| 1787821404 | 25° C | 74% | 1009.7 hPa | 0 mm | - | - | - |
| 1787820505 | 25° C | 72% | 1009.7 hPa | 0 mm | - | - | - |
| 1787819605 | 25.56° C | 71% | 1009.7 hPa | 0 mm | - | - | - |
| 1787818706 | 26.11° C | 70% | 1009.6 hPa | 0 mm | - | - | - |
| 1787817805 | 26.11° C | 69% | 1009.7 hPa | 0 mm | - | - | - |
| 1787816904 | 26.67° C | 68% | 1009.5 hPa | 0 mm | - | - | - |
| 1787816006 | 26.67° C | 68% | 1009.7 hPa | 0 mm | - | - | - |
| 1787815105 | 27.22° C | 67% | 1009.7 hPa | 0 mm | - | - | - |
| 1787814205 | 27.22° C | 66% | 1009.7 hPa | 0 mm | - | - | - |
| 1787813305 | 27.22° C | 66% | 1009.9 hPa | 0 mm | - | - | - |
| 1787812404 | 27.78° C | 65% | 1009.8 hPa | 0 mm | - | - | - |
* Rain latest hour (hover to see other rain measurements)
** Current wind speed in m/s (hover to see current wind gust speed)